CAPE
6 4 2 1 1 1 1 1 1 2 2 1 0 0 1 2 0 0 0 0 0 0 0 0 0 0 0 0 0 0 0 0 0 0 0 1 17 57 86 36 46 30 28 6 0
6 4 2 1 1 0 0 2 2 2 1 1 1 1 2 1 0 0 0 0 0 0 0 0 0 0 0 0 0 0 0 0 0 0 0 0 0 109 56 55 73 69 76 6 0
3 3 2 1 0 0 0 1 1 1 1 2 2 1 2 0 0 0 0 0 0 0 0 0 0 0 0 0 0 0 0 0 0 0 0 0 0 48 113 36 83 98 76 0 0
3 1 1 0 0 0 0 1 1 1 1 1 2 1 1 0 0 0 0 0 0 0 0 0 0 0 0 0 0 0 0 0 0 0 0 0 0 0 13 117 80 155 57 13 0
1 1 0 0 0 0 0 0 0 0 0 0 1 2 0 0 0 0 0 0 0 0 0 0 0 0 0 0 0 0 0 0 0 0 0 0 0 0 0 119 37 194 100 69 0
1 0 0 0 0 0 0 0 0 0 0 0 1 1 0 0 0 0 0 0 0 0 0 0 0 0 0 0 0 0 0 0 0 0 0 0 0 0 1 261 142 173 166 160 66
2 1 0 0 0 0 0 0 0 0 0 1 2 0 0 0 0 0 0 0 0 0 0 0 0 0 0 0 0 0 0 0 0 0 0 0 0 0 10 354 256 251 284 271 152
2 2 2 1 0 0 0 0 0 0 0 1 2 0 0 0 0 0 0 0 0 0 0 0 0 0 0 0 0 0 0 0 0 0 0 0 0 0 53 291 366 407 420 387 360
2 1 3 3 3 0 0 0 0 0 0 0 0 0 0 0 0 0 0 0 0 0 0 0 0 0 0 0 0 0 0 0 0 0 0 0 0 0 95 172 217 335 579 556 496
0 1 3 2 1 0 0 0 0 0 0 0 0 0 0 0 0 0 0 0 0 0 0 0 0 0 0 0 0 0 0 0 0 0 0 0 0 0 150 219 182 299 600 745 746
0 0 2 0 0 0 0 0 0 0 0 0 0 0 0 0 0 0 0 0 0 0 0 0 0 0 0 0 0 0 0 0 0 0 0 0 0 0 13 242 264 351 373 720 816
0 1 0 0 0 0 0 0 0 0 0 0 0 0 0 0 0 0 0 0 0 0 0 0 0 0 0 0 0 0 0 0 0 0 0 0 0 0 0 232 260 331 439 479 603
0 0 0 0 0 0 0 0 0 0 0 0 0 0 0 0 0 0 0 0 0 0 0 0 0 0 0 0 0 0 0 0 0 0 0 0 0 0 0 66 261 343 420 381 381
0 0 0 0 0 0 0 0 0 0 0 0 0 0 0 0 0 0 0 0 0 0 0 0 0 0 0 0 0 0 0 0 0 0 0 0 0 0 0 0 186 247 220 212 247
0 0 0 0 0 0 0 0 0 0 0 0 0 0 0 0 0 0 0 0 0 0 0 0 0 0 0 0 0 0 0 0 0 0 0 0 0 0 0 0 0 215 198 208 235
0 0 0 0 0 0 0 0 0 0 0 0 0 0 0 0 0 0 0 0 0 0 0 0 0 0 0 0 0 0 0 0 0 0 0 0 0 0 0 0 0 0 100 97 197
0 0 0 0 0 0 0 0 0 0 0 0 0 0 0 0 0 0 0 0 0 0 0 0 0 0 0 0 0 0 0 0 0 0 0 0 0 0 0 0 0 0 4 101 193
0 0 0 0 0 0 0 1 0 0 0 0 0 0 0 0 0 0 0 0 0 0 0 0 0 0 0 0 0 0 0 0 0 0 0 0 0 0 0 0 0 34 221 153 141
0 0 0 0 0 0 3 0 0 0 0 0 0 0 0 0 0 0 0 0 0 0 0 0 0 0 0 0 0 0 0 0 0 0 0 0 0 0 0 0 0 0 0 81 109
0 0 0 0 0 0 0 0 0 0 0 0 0 0 0 0 0 0 0 0 0 0 0 0 0 0 0 0 0 0 0 0 0 0 0 0 0 0 0 0 0 0 0 0 0
0 0 0 0 0 0 0 0 0 0 0 0 0 0 0 0 0 0 0 0 0 0 0 0 0 0 0 0 0 0 0 0 0 0 0 0 0 0 0 0 0 0 0 0 0
0 0 0 0 0 0 0 0 0 0 0 0 0 0 0 0 0 0 0 0 0 0 0 0 0 0 0 0 0 0 0 0 0 0 0 0 0 0 0 0 0 0 0 0 0
0 0 0 0 0 0 0 0 0 0 0 0 0 0 0 0 0 0 0 0 0 0 0 0 0 0 0 0 0 0 0 0 0 0 0 0 0 0 0 0 0 0 0 0 0
0 0 0 0 0 0 0 0 0 0 0 0 0 0 0 0 0 0 0 0 0 0 0 0 0 0 0 0 0 0 0 0 0 0 0 0 0 0 0 0 0 0 0 0 0
0 0 0 0 0 0 0 0 0 0 0 0 0 0 0 0 0 0 0 0 0 0 0 0 0 0 0 0 0 0 0 0 0 0 0 0 0 0 0 0 0 0 0 0 0
0 0 0 0 0 0 0 0 0 0 0 0 0 0 0 0 0 0 0 0 0 0 0 0 0 0 0 0 0 0 0 0 0 0 0 0 0 0 0 0 0 0 0 0 0
0 0 0 0 0 0 0 0 0 0 0 0 0 0 0 0 0 0 0 0 0 0 0 0 0 0 0 0 0 0 0 0 0 0 0 0 0 0 0 0 0 0 0 0 0
CIN
-0 -0 -0 -0 -0 -0 -0 -0 -0 -0 -0 -0 -0 -0 -0 -0 -0 -0 -0 -0 -0 -0 -0 -0 -0 -0 -0 -0 -0 -0 -0 -0 -0 -0 -0 -78 -143 -282 -335 -331 -350 -433 -473 -218 -0
-1 -0 -0 -0 -0 -0 -0 -0 -0 -0 -0 -0 -0 -0 -0 -0 -0 -0 -0 -0 -0 -0 -0 -0 -0 -0 -0 -0 -0 -0 -0 -0 -0 -0 -0 -0 -0 -172 -222 -285 -342 -425 -607 -481 -0
-1 -1 -0 -0 -0 -0 -0 -0 -0 -0 -0 -0 -0 -0 -0 -0 -0 -0 -0 -0 -0 -0 -0 -0 -0 -0 -0 -0 -0 -0 -0 -0 -0 -0 -0 -0 -0 -221 -170 -248 -340 -345 -584 -0 -0
-1 -0 -0 -0 -1 -0 -0 -0 -0 -0 -0 -0 -0 -0 -0 -0 -0 -0 -0 -0 -0 -0 -0 -0 -0 -0 -0 -0 -0 -0 -0 -0 -0 -0 -0 -0 -0 -0 -194 -216 -318 -404 -531 -724 -0
-0 -0 -0 -0 -0 -0 -0 -0 -0 -0 -0 -0 -0 -0 -0 -0 -0 -0 -0 -0 -0 -0 -0 -0 -0 -0 -0 -0 -0 -0 -0 -0 -0 -0 -0 -0 -0 -0 -0 -261 -360 -374 -498 -576 -38
-1 -0 -0 -0 -0 -0 -0 -0 -0 -0 -0 -0 -0 -0 -0 -0 -0 -0 -0 -0 -0 -0 -0 -0 -0 -0 -0 -0 -0 -0 -0 -0 -0 -0 -0 -0 -0 -0 -68 -275 -296 -365 -412 -493 -630
-0 -0 -0 -0 -0 -0 -0 -0 -0 -0 -0 -0 -0 -0 -0 -0 -0 -0 -0 -0 -0 -0 -0 -0 -0 -0 -0 -0 -0 -0 -0 -0 -0 -0 -0 -0 -0 -0 -240 -256 -243 -326 -367 -419 -470
-1 -0 -0 -0 -0 -0 -0 -0 -0 -0 -0 -0 -0 -0 -0 -0 -0 -0 -0 -0 -0 -0 -0 -0 -0 -0 -0 -0 -0 -0 -0 -0 -0 -0 -0 -0 -0 -0 -226 -216 -206 -271 -300 -340 -380
-0 -0 -0 -0 -0 -0 -0 -0 -0 -0 -0 -0 -0 -0 -0 -0 -0 -0 -0 -0 -0 -0 -0 -0 -0 -0 -0 -0 -0 -0 -0 -0 -0 -0 -0 -0 -0 -0 -229 -180 -204 -265 -264 -281 -291
-0 -0 -0 -0 -0 -0 -0 -0 -0 -0 -0 -0 -0 -0 -0 -0 -0 -0 -0 -0 -0 -0 -0 -0 -0 -0 -0 -0 -0 -0 -0 -0 -0 -0 -0 -0 -0 -0 -201 -168 -168 -264 -260 -234 -226
-0 -0 -0 -0 -0 -0 -0 -0 -0 -0 -0 -0 -0 -0 -0 -0 -0 -0 -0 -0 -0 -0 -0 -0 -0 -0 -0 -0 -0 -0 -0 -0 -0 -0 -0 -0 -0 -0 -39 -176 -181 -243 -255 -214 -209
-0 -0 -0 -0 -0 -0 -0 -0 -0 -0 -0 -0 -0 -0 -0 -0 -0 -0 -0 -0 -0 -0 -0 -0 -0 -0 -0 -0 -0 -0 -0 -0 -0 -0 -0 -0 -0 -0 -0 -136 -133 -178 -261 -272 -193
-0 -0 -0 -0 -0 -0 -0 -0 -0 -0 -0 -0 -0 -0 -0 -0 -0 -0 -0 -0 -0 -0 -0 -0 -0 -0 -0 -0 -0 -0 -0 -0 -0 -0 -0 -0 -0 -0 -0 -194 -216 -243 -248 -227 -247
-0 -0 -0 -0 -0 -0 -0 -0 -0 -0 -0 -0 -0 -0 -0 -0 -0 -0 -0 -0 -0 -0 -0 -0 -0 -0 -0 -0 -0 -0 -0 -0 -0 -0 -0 -0 -0 -0 -0 -9 -150 -178 -225 -240 -270
-0 -0 -0 -0 -0 -0 -0 -0 -0 -0 -0 -0 -0 -0 -0 -0 -0 -0 -0 -0 -0 -0 -0 -0 -0 -0 -0 -0 -0 -0 -0 -0 -0 -0 -0 -0 -0 -0 -0 -0 -0 -121 -212 -248 -280
-0 -0 -0 -0 -0 -0 -0 -0 -0 -0 -0 -0 -0 -0 -0 -0 -0 -0 -0 -0 -0 -0 -0 -0 -0 -0 -0 -0 -0 -0 -0 -0 -0 -0 -0 -0 -0 -0 -0 -0 -0 -5 -190 -301 -285
-0 -0 -0 -0 -0 -0 -0 -0 -0 -0 -0 -0 -0 -0 -0 -0 -0 -0 -0 -0 -0 -0 -0 -0 -0 -0 -0 -0 -0 -0 -0 -0 -0 -0 -0 -0 -0 -0 -0 -0 -0 -0 -44 -235 -366
-0 -0 -0 -0 -0 -0 -0 -5 -4 -0 -0 -0 -0 -0 -0 -0 -0 -0 -0 -0 -0 -0 -0 -0 -0 -0 -0 -0 -0 -0 -0 -0 -0 -0 -0 -0 -0 -0 -0 -0 -0 -140 -111 -194 -274
-0 -0 -0 -0 -0 -0 -7 -0 -0 -0 -0 -0 -0 -0 -0 -0 -0 -0 -0 -0 -0 -0 -0 -0 -0 -0 -0 -0 -0 -0 -0 -0 -0 -0 -0 -0 -0 -0 -0 -0 -0 -0 -0 -152 -208
-0 -0 -0 -0 -0 -0 -5 -0 -0 -0 -0 -0 -0 -0 -0 -0 -0 -0 -0 -0 -0 -0 -0 -0 -0 -0 -0 -0 -0 -0 -0 -0 -0 -0 -0 -0 -0 -0 -0 -0 -0 -0 -0 -0 -0
-0 -0 -0 -0 -0 -0 -0 -0 -0 -0 -0 -0 -0 -0 -0 -0 -0 -0 -0 -0 -0 -0 -0 -0 -0 -0 -0 -0 -0 -0 -0 -0 -0 -0 -0 -0 -0 -0 -0 -0 -0 -0 -0 -0 -0
-0 -0 -0 -0 -0 -0 -0 -0 -0 -0 -0 -0 -0 -0 -0 -0 -0 -0 -0 -0 -0 -0 -0 -0 -0 -0 -0 -0 -0 -0 -0 -0 -0 -0 -0 -0 -0 -0 -0 -0 -0 -0 -0 -0 -0
-0 -0 -0 -0 -0 -0 -0 -0 -0 -0 -0 -0 -0 -0 -0 -0 -0 -0 -0 -0 -0 -0 -0 -0 -0 -0 -0 -0 -0 -0 -0 -0 -0 -0 -0 -0 -0 -0 -0 -0 -0 -0 -0 -0 -0
-0 -0 -0 -0 -0 -0 -0 -0 -0 -0 -0 -0 -0 -0 -0 -0 -0 -0 -0 -0 -0 -0 -0 -0 -0 -0 -0 -0 -0 -0 -0 -0 -0 -0 -0 -0 -0 -0 -0 -0 -0 -0 -0 -0 -0
-0 -0 -0 -0 -0 -0 -0 -0 -0 -0 -0 -0 -0 -0 -0 -0 -0 -0 -0 -0 -0 -0 -0 -0 -0 -0 -0 -0 -0 -0 -0 -0 -0 -0 -0 -0 -0 -0 -0 -0 -0 -0 -0 -0 -0
-0 -0 -0 -0 -0 -0 -0 -0 -0 -0 -0 -0 -0 -0 -0 -0 -0 -0 -0 -0 -0 -0 -0 -0 -0 -0 -0 -0 -0 -0 -0 -0 -0 -0 -0 -0 -0 -0 -0 -0 -0 -0 -0 -0 -0
-0 -0 -0 -0 -0 -0 -0 -0 -0 -0 -0 -0 -0 -0 -0 -0 -0 -0 -0 -0 -0 -0 -0 -0 -0 -0 -0 -0 -0 -0 -0 -0 -0 -0 -0 -0 -0 -0 -0 -0 -0 -0 -0 -0 -0
Wind_Speed
40 41 41 41 41 41 41 40 40 39 38 37 37 36 35 35 35 28 27 16 18 17 15 19 16 19 18 19 19 18 24 26 24 24 24 18 17 15 16 6 8 18 12 7 18
42 43 43 43 43 43 42 42 41 40 39 38 36 35 34 34 33 35 10 12 8 11 15 19 18 18 21 21 20 22 26 26 23 22 23 22 21 15 16 10 12 13 6 9 14
44 44 44 45 45 45 44 43 42 40 39 37 35 34 33 31 30 22 21 6 4 9 14 17 19 20 23 22 22 24 29 27 26 25 22 25 26 19 20 20 14 10 4 10 11
44 45 45 46 46 46 45 44 42 40 38 36 34 32 31 24 24 18 17 8 7 7 12 15 19 22 23 26 23 26 28 28 28 26 25 26 23 24 20 24 20 7 14 13 12
46 46 46 47 47 46 45 44 42 40 38 35 32 30 25 26 26 22 15 10 10 9 10 12 17 21 24 24 23 28 29 28 27 25 26 24 26 25 26 22 13 9 11 12 11
47 47 48 48 47 46 45 44 43 42 39 33 28 25 24 31 22 21 17 13 14 12 11 10 15 17 22 24 24 24 28 31 29 27 26 26 25 23 22 16 10 11 13 11 13
49 49 49 49 48 47 46 44 43 43 40 30 22 19 25 26 18 20 20 18 15 15 13 11 13 16 18 23 24 25 32 33 31 28 28 22 29 28 19 15 13 9 11 11 13
51 51 51 50 49 48 46 45 44 38 32 19 14 18 28 23 23 28 21 20 18 17 18 17 13 15 17 17 21 24 27 35 31 28 28 24 35 29 18 16 16 13 11 13 15
53 53 53 52 50 48 46 45 36 27 20 13 16 20 31 24 23 24 17 17 17 17 18 18 16 17 16 19 26 27 32 31 32 26 25 25 30 30 18 18 20 18 14 15 16
55 55 54 53 51 47 45 39 25 23 20 19 22 25 26 20 20 19 15 15 18 17 19 19 19 20 18 17 28 29 30 30 27 25 26 29 31 28 23 22 21 21 18 17 18
56 56 55 53 50 45 41 29 29 29 27 27 25 24 24 25 21 17 14 13 18 20 21 20 23 22 17 19 20 21 26 28 27 27 26 29 30 33 30 28 26 23 24 22 20
58 57 55 53 46 39 32 28 28 30 38 32 35 37 37 24 23 18 9 12 16 21 20 23 26 23 22 20 20 21 26 31 30 31 29 33 36 33 28 29 26 23 23 24 19
59 58 55 51 38 33 28 30 30 27 34 33 27 28 27 21 24 21 13 15 17 19 21 25 24 21 20 20 20 21 21 24 25 23 28 30 37 36 30 31 31 29 28 27 27
60 59 55 49 28 35 29 36 33 22 34 30 25 23 20 20 27 22 18 18 20 20 21 27 28 19 21 24 20 26 19 21 25 24 31 25 40 36 33 33 31 32 28 26 24
60 59 52 36 34 36 37 39 30 19 38 25 21 17 18 19 20 22 21 22 22 20 20 25 23 26 28 24 19 23 16 21 23 24 25 30 33 34 31 37 36 34 31 29 27
60 58 45 30 30 33 39 34 19 28 36 24 22 23 20 22 21 20 19 19 22 25 25 25 20 20 24 22 18 18 17 18 18 20 29 27 31 35 32 35 36 37 34 27 27
59 50 33 29 36 40 33 22 27 34 28 27 26 26 23 23 22 20 17 18 25 28 32 29 29 24 20 19 18 19 17 23 27 27 27 19 25 36 29 29 31 35 39 35 27
55 37 27 29 37 34 23 22 29 28 27 25 25 24 21 21 20 19 20 22 20 24 26 31 33 30 24 25 23 23 22 23 29 31 29 23 26 23 20 23 27 29 32 32 33
46 30 32 41 37 23 20 22 24 26 26 28 24 23 23 22 22 19 17 23 23 23 27 28 29 22 20 24 22 25 27 24 24 23 25 25 25 18 19 18 18 18 20 26 29
39 28 37 47 31 21 18 16 19 23 24 24 25 23 25 24 22 22 21 22 25 23 24 26 28 23 21 18 20 26 21 27 26 32 35 29 26 26 22 19 19 20 21 23 24
35 30 42 42 24 22 19 19 22 26 22 21 23 26 23 25 23 22 23 22 23 26 21 24 25 25 22 23 24 23 25 25 25 30 35 32 29 22 21 20 20 21 22 23 25
34 35 38 34 27 20 22 23 22 25 21 20 20 21 23 23 23 22 22 22 25 25 25 25 26 31 25 21 16 20 23 24 31 32 32 31 29 18 18 18 20 21 23 24 24
34 28 31 34 27 25 23 22 22 24 24 21 22 22 21 23 25 21 21 24 23 21 24 27 27 31 29 26 24 24 23 24 25 27 32 33 30 18 21 21 22 22 23 25 26
31 34 27 32 28 26 22 25 24 24 24 20 21 21 22 23 22 25 26 26 25 23 25 24 28 31 34 31 29 31 29 27 27 32 32 29 22 27 25 25 26 26 25 25 26
32 30 28 29 33 29 23 25 25 25 24 24 23 23 23 25 25 26 28 30 28 24 26 26 34 34 36 34 33 36 37 34 33 32 35 29 31 26 25 25 26 26 27 27 27
31 29 26 25 27 28 26 28 28 28 25 25 26 28 25 24 25 30 31 31 30 30 33 28 34 34 39 39 38 42 37 35 35 35 40 39 41 28 26 25 26 27 27 28 28
24 23 24 23 27 28 24 28 28 28 25 27 30 30 29 28 30 32 33 34 36 37 33 32 32 34 41 34 37 46 40 39 35 33 36 41 33 28 29 28 28 29 29 31 32
Wind_Direction
327 324 321 318 315 312 309 307 305 305 305 305 302 298 297 297 291 310 305 319 313 296 288 285 285 278 275 272 273 275 269 268 271 268 268 289 295 281 282 294 294 263 291 271 118
328 325 321 318 315 312 310 307 306 304 304 304 304 301 299 302 302 284 309 327 328 325 290 278 278 277 270 269 269 266 264 266 271 273 273 277 284 277 274 266 283 273 331 118 120
327 324 322 319 315 311 309 307 305 304 304 304 304 303 302 304 304 312 314 347 357 330 310 292 278 275 267 267 265 265 261 265 269 271 275 274 276 280 271 260 267 253 149 141 132
327 324 322 319 316 313 309 307 306 305 304 305 303 303 302 307 302 315 323 359 349 352 323 302 280 270 268 262 264 265 265 265 268 273 276 274 278 275 270 265 265 218 150 152 155
329 325 322 319 316 312 308 306 303 303 303 304 303 303 303 294 288 299 312 326 324 326 325 316 287 271 267 268 266 262 263 264 267 271 273 278 274 276 269 275 263 219 180 175 181
330 326 323 319 315 312 307 303 299 297 297 301 304 305 297 286 296 295 292 297 302 304 312 318 302 285 275 269 266 269 264 262 265 267 272 273 275 279 271 274 259 216 197 197 181
332 329 324 320 315 312 307 301 299 294 291 299 305 307 293 286 297 293 288 284 291 292 297 306 314 295 287 274 272 271 265 262 262 265 268 275 269 270 267 262 254 228 214 219 205
335 332 328 323 317 313 307 304 303 301 302 307 309 307 293 298 290 277 280 277 282 286 282 290 305 301 292 290 280 271 269 259 261 261 265 263 260 267 261 250 249 240 234 215 195
338 334 330 326 321 315 310 306 309 319 322 320 309 301 290 298 290 279 268 269 276 280 280 285 293 289 297 284 274 270 264 263 260 262 262 257 262 263 260 248 247 250 242 215 210
339 336 335 329 325 319 316 314 320 318 317 309 301 296 290 298 295 290 271 257 273 273 274 273 281 277 282 283 272 268 264 263 263 263 259 255 260 265 264 249 250 249 247 229 216
343 339 333 330 330 326 331 330 315 303 302 287 291 289 293 292 291 287 277 252 264 269 264 269 265 264 272 278 283 281 270 265 263 262 265 259 257 260 264 255 254 252 247 244 234
342 340 338 332 329 338 342 332 323 308 292 290 280 275 272 287 281 278 275 259 257 260 261 265 262 269 276 277 280 282 274 268 268 263 262 260 258 261 262 254 248 249 248 247 238
340 338 336 333 337 344 337 337 330 320 295 291 286 279 274 267 271 267 264 267 261 258 256 258 275 269 267 271 273 278 279 275 270 271 267 261 259 257 261 258 253 255 255 251 247
342 338 333 333 342 337 332 326 325 322 292 288 288 285 278 267 267 262 265 263 269 259 261 265 261 278 262 266 271 271 281 278 273 272 259 262 258 255 255 256 251 252 252 252 251
343 340 337 342 333 329 326 321 318 319 278 293 289 300 285 259 277 265 263 263 262 262 261 266 268 262 262 267 268 275 284 280 278 275 269 261 263 261 259 253 253 253 254 253 252
346 341 344 350 341 332 324 320 317 285 270 286 289 286 272 268 274 277 266 269 268 262 266 263 272 275 268 265 266 280 283 285 284 278 268 267 263 263 258 256 257 257 259 256 254
349 349 357 354 339 328 326 318 285 268 293 283 282 283 272 269 271 272 266 264 261 257 257 263 263 269 275 268 270 268 269 270 268 265 268 279 270 264 271 267 265 265 261 262 260
353 359 5 357 341 330 336 304 276 281 281 292 289 280 270 276 274 270 261 263 282 270 265 256 259 259 266 261 265 261 259 264 265 264 266 273 273 272 296 282 277 275 271 269 264
360 9 6 352 336 347 336 301 286 283 289 283 280 276 272 276 274 265 268 270 277 283 263 264 261 275 270 265 259 261 257 263 272 279 271 268 275 287 305 304 299 296 289 278 272
5 11 5 334 345 354 339 323 303 305 294 291 272 285 273 278 272 265 267 283 273 284 279 272 263 271 275 273 271 261 263 259 263 261 261 269 271 273 291 298 302 299 298 296 292
14 17 5 333 5 1 344 322 311 314 306 296 284 274 282 277 281 269 273 275 290 281 284 278 266 265 269 270 265 266 260 264 263 263 260 265 269 283 289 298 300 302 304 302 298
19 18 13 3 13 9 345 326 325 322 318 307 299 295 286 290 281 271 269 280 295 287 275 280 270 260 265 277 284 273 269 267 259 261 264 264 269 288 294 300 303 302 306 309 309
18 23 26 25 10 4 343 328 337 328 324 309 305 303 299 289 274 280 277 291 298 295 284 280 270 261 262 266 274 272 274 275 270 269 262 260 263 279 291 295 299 303 310 310 310
23 18 25 27 29 13 348 332 319 327 328 319 316 313 301 294 293 279 280 288 293 294 295 284 270 265 260 264 271 266 271 277 272 263 265 266 261 277 285 289 293 296 304 308 315
26 24 26 19 7 6 2 334 325 314 320 326 311 313 306 291 289 285 289 288 291 288 293 285 269 270 268 270 272 269 268 270 268 267 264 266 270 282 289 291 294 298 301 304 306
24 24 22 19 14 7 3 338 322 313 313 314 311 306 305 297 294 290 293 291 283 284 289 284 272 274 269 271 271 267 269 270 269 269 269 270 270 283 287 293 296 300 302 301 305
28 26 20 16 9 4 4 347 327 321 311 314 309 306 299 300 298 294 292 290 284 282 282 278 274 273 269 274 273 267 268 267 269 271 271 268 273 282 282 287 292 296 299 301 299